Estación de Contra Coronel
Ultimos registro cada 15 minutos 27
| N° | Estación | Fecha / Hora | Temperatura | Humedad | Lluvia | Velocidad | Dirección | Radiación | Presion |
| 27 | Contra Coronel | 02-09-2026 06:30 | 6,3 | 97 | 0 | 0 | 41 | 0,6 | 1008,8 |
| 26 | Contra Coronel | 02-09-2026 06:15 | 7,1 | 97 | 0 | 0 | 44 | 0,6 | 1008,7 |
| 25 | Contra Coronel | 02-09-2026 06:00 | 6,9 | 98,8 | 0 | 0,3 | 76 | 0,6 | 1008,7 |
| 24 | Contra Coronel | 02-09-2026 05:45 | 6,4 | 98,9 | 0 | 0,7 | 62 | 0,6 | 1008,5 |
| 23 | Contra Coronel | 02-09-2026 05:30 | 6 | 98,5 | 0 | 0 | 316 | 0,6 | 1008,4 |
| 22 | Contra Coronel | 02-09-2026 05:15 | 5,5 | 97,9 | 0 | 0 | 271 | 0,6 | 1008,1 |
| 21 | Contra Coronel | 02-09-2026 05:00 | 5,8 | 97,1 | 0 | 0 | 265 | 0,6 | 1008 |
| 20 | Contra Coronel | 02-09-2026 04:45 | 6,3 | 96,7 | 0 | 0 | 310 | 0,6 | 1008 |
| 19 | Contra Coronel | 02-09-2026 04:30 | 7,3 | 95,2 | 0 | 0 | 310 | 0,6 | 1007,9 |
| 18 | Contra Coronel | 02-09-2026 04:15 | 8,4 | 94,6 | 0 | 0 | 305 | 0,6 | 1007,9 |
| 17 | Contra Coronel | 02-09-2026 04:00 | 9,2 | 91,7 | 0 | 2 | 284 | 0,6 | 1007,8 |
| 16 | Contra Coronel | 02-09-2026 03:45 | 8 | 98,3 | 0 | 0 | 284 | 0,6 | 1007,7 |
| 15 | Contra Coronel | 02-09-2026 03:30 | 8,7 | 98,1 | 0 | 0,3 | 320 | 0,6 | 1007,8 |
| 14 | Contra Coronel | 02-09-2026 03:15 | 8,2 | 98 | 0 | 0,7 | 338 | 0,6 | 1007,7 |
| 13 | Contra Coronel | 02-09-2026 03:00 | 8,8 | 96,2 | 0 | 0 | 108 | 0,6 | 1007,6 |
| 12 | Contra Coronel | 02-09-2026 02:45 | 9,6 | 95,8 | 0 | 0,3 | 248 | 0,6 | 1007,6 |
| 11 | Contra Coronel | 02-09-2026 02:30 | 9,9 | 94,9 | 0 | 1 | 338 | 0,6 | 1007,7 |
| 10 | Contra Coronel | 02-09-2026 02:15 | 10,1 | 94,5 | 0 | 1,3 | 358 | 0,6 | 1007,8 |
| 9 | Contra Coronel | 02-09-2026 02:00 | 10,1 | 94,6 | 0 | 1 | 11 | 0,6 | 1008,2 |
| 8 | Contra Coronel | 02-09-2026 01:45 | 9,9 | 94,4 | 0 | 1 | 18 | 0,6 | 1008,1 |
| 7 | Contra Coronel | 02-09-2026 01:30 | 9,9 | 93,4 | 0 | 1 | 7 | 0,6 | 1008,2 |
| 6 | Contra Coronel | 02-09-2026 01:15 | 9,6 | 94,2 | 0 | 0,7 | 20 | 0,6 | 1008,2 |
| 5 | Contra Coronel | 02-09-2026 01:00 | 9,8 | 93,6 | 0 | 1 | 358 | 0,6 | 1008,4 |
| 4 | Contra Coronel | 02-09-2026 00:45 | 10 | 93,1 | 0 | 0,3 | 0 | 0,6 | 1008,5 |
| 3 | Contra Coronel | 02-09-2026 00:30 | 10 | 92,3 | 0 | 1 | 4 | 0,6 | 1008,6 |
| 2 | Contra Coronel | 02-09-2026 00:15 | 10 | 92,8 | 0 | 1,7 | 358 | 0,6 | 1008,7 |
| 1 | Contra Coronel | 02-09-2026 00:00 | 10,1 | 91,9 | 0 | 1,7 | 4 | 0,6 | 1008,9 |